{"data":{"norad_id":49751,"intl_designator":"2021-115AD","name":"STARLINK-3229","alt_names":[],"object_type":"PAYLOAD","status":"ACTIVE","operator":null,"country":"US","launch_date":"2021-12-02","launch_site_code":"AFETR","launch_vehicle":null,"mission":null,"orbit_class":"UNKNOWN","rcs_meters":null,"size_class":null,"mass_kg":null,"dimensions":null,"purposes":["comms"],"wikipedia_slug":null,"has_3d_model":false,"image_url":null,"decayed_at":null,"tle_current":{"epoch":"2026-09-19T18:53:15.505728Z","epoch_age_seconds":106210,"freshness":"FRESH","line1":"1 49751U 21115AD  26262.78698502 -.00000289  00000+0  25832-5 0  9993","line2":"2 49751  53.1622 351.4004 0001081  88.4947 271.6180 15.34400086264923","mean_motion":15.34400086,"eccentricity":0.0001081,"inclination_deg":53.1622,"raan_deg":351.4004,"arg_perigee_deg":88.4947,"mean_anomaly_deg":271.618,"bstar":2.5832e-6,"rev_number":26492,"period_min":93.847752821359,"perigee_km":461.96348979466,"apogee_km":463.44247939933,"semimajor_km":6840.839984597,"source":"CELESTRAK","updated_at":"2026-09-20T09:00:39.408613Z"}}}